Aérodrome :
LOGIN :

S'inscrire | Disclaimer

   EN    FR    IT 

 










Légende :    VFR   VFR Marginal   IFR   IFR Intensif   IFR Très Intensif
Visi : 
Plafond : 
>= 8 km
>= 3000ft
5 à 8 km
1000 à 3000 ft
1500m à 5 km
500 à 1000 ft
800 à 1500m
200 à 500 ft
< 800m
< 200 ft
Symboles :   Orages  Brouillard  Fortes neiges  Fortes précipitations  Vent > 20 kt
SIGMETs :   Divers  Orages  Givrage  Turbulence  Onde Orograph.  Cendres Volcan.







- Altitude de l'aérodrome : 121 ft
- Code IATA : HUY
- Voir les cartes d'approche


EGNJ - Humberside

DERNIER METAR :
  • 261550Z 30011KT 9999 FEW032 BKN045 12/03 Q1031

METARs EXPIRÉS :
  • 261520Z 28011KT 9999 FEW030 BKN040 13/03 Q1031
  • 261450Z 27013KT 9999 FEW030 SCT038 13/03 Q1031
  • 261420Z 26014KT 9999 FEW030 SCT038 13/03 Q1031
  • 261350Z 30008KT 240V330 9999 SCT024 BKN036 12/04 Q1032
  • 261320Z 30004KT 240V350 9999 SCT031 BKN042 11/04 Q1032

TAF TAF EGNJ
Valide du 26 à 15h jusqu'au 27 à 00h UTC


261400Z 2615/2624 28008KT 9999 SCT045
ATIS : +44 1652 682 020
Pas de NOTAMs connus pour ce terrain.



MET'MAP, la Météo Aéronautique d'un coup d'oeil ! - Copyright ORBIFLY Décembre 2007 - Disclaimer

ORBIFLY MET'MAP TEAM :

Programmation & Développement : Alexandra Zaïnal
Conception & Développement : Baudouin d'Aumeries
Co-Programmation & Développement : Marc-Olivier Méhu
Soutien technique & logistique : Manuel Goepfert

Contact : metmap@orbifly.com




SOURCES & CREDITS :

   NOAA